STARLINK-35956 (66629 NORAD) Tracking and Keplerian Element Data

This shows tracking and keplerian element data for the satellite.

Feedback or suggestion? Click here.




ElementValue
Catalog66629
NameSTARLINK-35956
Epoch Orbit519
Epoch Day352.66667824
Epoch Year2025
RAAN158.846
Inclination53.1591
Eccentricity5.42E-05
Argument of Perigee63.7637
Mean Anonmoly4.4961
Mean Motion15.49463337
Decay Rate0.00012088
L11 66629U 25271N 25352.66667824 .00012088 00000+0 22385-3 0 9999
L22 66629 53.1591 158.8460 0000542 63.7637 4.4961 15.49463337 5194



Live tracking and technical data element details for STARLINK-35956 (NORAD 66629). STARLINK-35956 can be tracked NOW for your location showing map with azimuth and elevation plus other details from your city location.







IsCatalogInMostPopularTable: catalog: 66629, numindb: 15
Update: records affected: 1



GetName: 66629 STARLINK-35956

Hit Count: updated at: Tue, 21 Apr 2026 20:06:29 GMT